THOR ABLESTAR DEB, 324

Orbit data source: Space-Track

THOR ABLESTAR DEB, 324 is space debris in LEO originally from a launch on Thu, 29 Jun 1961 UTC launched from the Air Force Eastern Test Range (AFETR). Debris objects in space refer to the collection of defunct objects orbiting the Earth. Examples of debris include non-operational satellites, rocket bodies, and fragments generated from explosions, collisions, or faulty payload assembly.

Loading next visibility...
Identifier
324, 1961-015DA
Orbit
LEO
Last TLE update
17 hours ago
Origin
Manufacturer
Unknown
Mission
Spacecraft
Bus & Motor
Unknown
Mass
Unknown
Launch date (UTC)
1961-06-29 (64 years ago)
Launch vehicle
Unknown
Launch site
Air Force Eastern Test Range (AFETR)
Object type
Payload
Rocket body
Debris
Shape & HBR
Unknown
Radar Cross Section
Small (<0.1 m²)

Expand to show TLE details & history

TLE from 17 hours ago
0 THOR ABLESTAR DEB
1   324U 61015DA  25115.05951429  .00000768  00000-0  44540-3 0  9992
2   324  66.8660   7.7018 0070946 332.0261  27.7023 14.12812037264416
Epoch: 2025-04-25T01:25Z
Definitive object data (Epoch: 2025-04-25T01:25:42.034Z)
Latitude
-0.00002°
Longitude
132.95462°
Altitude
806.541 km
Speed
7.474 km/s
True Right ascension
00h 30m 48s
True Declination
0° 00' 00"
Sunlit
Object was in daylight at TLE epoch
Visualization TLE readout
Latitude
15.73634°
Longitude
138.03621°
Altitude
815.157 km
Speed
7.466 km/s
Apparent Right ascension
22h 59m 05s
Apparent Declination
-41° 00' 38"
Sunlit
Object is in daylight
Visualization observer readout
Local Sidereal Time
01:45:29
Azimuth
210.066° SW
Elevation
0.674°
Doppler factor
1
Orbital elements
Apogee altitude
899.401 km
Perigee altitude
796.866 km
Semi-major axis
7,226.271 km
Eccentricity
0.0070946
Inclination
66.866°
RAAN
7.7018°
Arg. of periapsis
332.0261°
True anomaly
28.08322°
Mean anomaly
27.7023°
Eccentric anomaly
27.89246°
Mean motion
3.53323 °/min
BSTAR
0.0004454
Orbital period
101.89 mins
Loading maneuver chart data...
Loading SW <> Apogee altitude chart data...

THOR ABLESTAR DEB Visibility forecast

Observer location: undefined°, undefined°

Span
Click to sort rows by Start time (UTC) header in descending order
Start Az.
Max El. time (UTC)
Max El. Az.
Max El.
End time (UTC)
End Az.
10 mins2025-04-25 18:32:51.825Z211.743° SW2025-04-25 18:37:51.825Z337.453° NNW44.471°2025-04-25 18:42:51.825Z26.894° NE
4 mins2025-04-25 20:21:51.825Z302.398° NW2025-04-25 20:22:51.825Z314.209° NW14.606°2025-04-25 20:25:51.825Z348.336° N
5 mins2025-04-26 01:45:51.825Z22.98° NE2025-04-26 01:47:51.825Z46.519° ENE15.612°2025-04-26 01:50:51.825Z77.633° E
10 mins2025-04-26 03:28:51.825Z334.149° NNW2025-04-26 03:32:51.825Z23.485° NE44.557°2025-04-26 03:38:51.825Z149.065° SSE
4 mins2025-04-26 05:15:51.825Z270.822° WNW2025-04-26 05:16:51.825Z259.738° W14.103°2025-04-26 05:19:51.825Z228.341° WSW
9 mins2025-04-26 18:20:51.825Z213.512° SW2025-04-26 18:24:51.825Z308.6° NW44.537°2025-04-26 18:29:51.825Z26.361° NE
|